Location: Buckeye Ditch
(40.9104°N, 122.9517°W)
Time: 11:55:23
(UTC+00:00)

Tiros 1 despin weight - Pass Details

Date: 21 May 2025
Orbit: 563 x 601 km, 48.2° (Epoch: 22 June)

Event Time Altitude Azimuth Distance (km) Brightness Sun altitude
Rises 11:32:36 0° 263° (W) 2,812 - -12.6°
Reaches altitude 10° 11:34:58 10° 270° (W) 1,918 - -12.3°
Exits shadow 11:35:02 10° 271° (W) 1,894 ? -12.3°
Maximum altitude 11:39:10 43° 343° (NNW) 839 ? -11.7°
Drops below altitude 10° 11:43:26 10° 56° (NE) 1,939 ? -11.1°
Sets 11:45:50 0° 63° (ENE) 2,846 ? -10.7°
